Location: Gibsondale
(40.9931°N, 80.2478°W)
Time: 09:22:40
(UTC+00:00)

CZ-2D R/B - Pass Details

Date: 29 October 2020
Orbit: 521 x 537 km, 97.4° (Epoch: 27 November)

Event Time Altitude Azimuth Distance (km) Brightness Sun altitude
Rises 23:40:06 0° 165° (SSE) 2,647 6.7 -15.7°
Reaches altitude 10° 23:42:12 10° 165° (SSE) 1,761 5.8 -16.1°
Maximum altitude 23:46:00 84° 76° (ENE) 533 3.1 -16.8°
Drops below altitude 10° 23:49:49 10° 350° (N) 1,769 6.0 -17.5°
Sets 23:51:56 0° 349° (N) 2,661 6.9 -17.9°
